GW1430 Weather Reports


time (UTC)temp
C
wind
direction
speed
KPH
gust
KPH
rain 1hr
cm
rain 24hr
cm
rain mn
cm
humidity
%
barometer
mb
20260506081052 24 185 4.8 0.0 0.00 0.00 0.00 87 1007.2
20260506080552 24 151 3.2 0.0 0.00 0.00 0.00 87 1007.2
20260506073054 24 211 4.8 0.0 0.00 0.00 0.00 87 1007.5
20260506072548 24 175 4.8 0.0 0.00 0.00 0.00 87 1007.6
20260506072047 24 203 4.8 0.0 0.00 0.00 0.00 87 1007.8
20260506071551 24 224 4.8 0.0 0.00 0.00 0.00 87 1007.8
20260506071046 24 143 6.4 0.0 0.00 0.00 0.00 87 1007.7
20260506070546 24 169 4.8 0.0 0.00 0.00 0.00 87 1007.8
20260506070106 24 221 4.8 0.0 0.00 0.00 0.00 87 1007.8
20260506062046 24 186 4.8 0.0 0.00 0.00 0.00 87 1007.9
20260506061645 24 168 4.8 0.0 0.00 0.00 0.00 87 1007.9
20260506061046 24 151 4.8 0.0 0.00 0.00 0.00 87 1007.8
20260506060542 24 180 4.8 0.0 0.00 0.00 0.00 87 1007.9
20260506051037 25 211 4.8 0.0 0.00 0.00 0.00 86 1008.0
20260506050536 25 130 3.2 0.0 0.00 0.00 0.00 86 1007.9
20260506045033 25 149 4.8 0.0 0.00 0.00 0.00 86 1007.9
20260506044546 25 196 4.8 0.0 0.00 0.00 0.00 86 1007.9
20260506044032 25 190 3.2 0.0 0.00 0.00 0.00 86 1008.0
20260506043533 25 184 3.2 0.0 0.00 0.00 0.00 86 1008.0
20260506043033 25 100 4.8 0.0 0.00 0.00 0.00 86 1007.9
20260506042532 25 128 3.2 0.0 0.00 0.00 0.00 86 1007.9
20260506042032 25 114 3.2 0.0 0.00 0.00 0.00 85 1007.7
20260506041535 25 141 4.8 0.0 0.00 0.00 0.00 85 1007.7
20260506041032 25 101 4.8 0.0 0.00 0.00 0.00 85 1007.7
20260506040532 25 179 4.8 0.0 0.00 0.00 0.00 85 1007.6
20260506040034 25 119 4.8 0.0 0.00 0.00 0.00 85 1007.5
20260506035532 25 156 4.8 0.0 0.00 0.00 0.00 85 1007.5
20260506035031 25 174 3.2 0.0 0.00 0.00 0.00 84 1007.3
20260506034531 25 73 3.2 0.0 0.00 0.00 0.00 84 1007.3
20260506034030 25 91 3.2 0.0 0.00 0.00 0.00 84 1007.3
20260506033530 25 208 3.2 0.0 0.00 0.00 0.00 84 1007.3
20260506033030 25 163 3.2 0.0 0.00 0.00 0.00 84 1007.3
20260506032530 25 217 3.2 0.0 0.00 0.00 0.00 84 1007.2
20260506032031 25 246 3.2 0.0 0.00 0.00 0.00 84 1007.2
20260506031534 25 250 4.8 0.0 0.00 0.00 0.00 84 1007.0
20260506031029 25 173 3.2 0.0 0.00 0.00 0.00 83 1007.0
20260506030529 25 234 3.2 0.0 0.00 0.00 0.00 83 1007.0
20260506030030 26 133 4.8 0.0 0.00 0.00 0.00 83 1006.9
20260506025532 26 144 4.8 0.0 0.00 0.00 0.00 82 1006.8
20260506025029 26 195 4.8 0.0 0.00 0.00 0.00 82 1006.7
20260506024534 26 161 4.8 0.0 0.00 0.00 0.00 82 1006.7
20260506024029 26 136 3.2 0.0 0.00 0.00 0.00 81 1006.6
20260506023529 26 173 4.8 0.0 0.00 0.00 0.00 81 1006.4
20260506023028 26 185 4.8 0.0 0.00 0.00 0.00 80 1006.3
20260506022528 26 113 4.8 0.0 0.00 0.00 0.00 80 1006.2
20260506022028 26 96 3.2 0.0 0.00 0.00 0.00 79 1006.1
20260506021528 26 169 3.2 0.0 0.00 0.00 0.00 79 1005.9
20260506021028 26 155 3.2 0.0 0.00 0.00 0.00 79 1005.9
20260506020530 26 168 3.2 0.0 0.00 0.00 0.00 78 1005.8
20260506020028 26 215 1.6 0.0 0.00 0.00 0.00 78 1005.8
20260506015527 26 178 3.2 0.0 0.00 0.00 0.00 78 1005.7
20260506015027 27 129 3.2 0.0 0.00 0.00 0.00 78 1005.7
20260506014528 27 101 3.2 0.0 0.00 0.00 0.00 77 1005.6
20260506014026 27 161 3.2 0.0 0.00 0.00 0.00 77 1005.7
20260506013526 27 234 3.2 0.0 0.00 0.00 0.00 77 1005.7
20260506013027 27 110 1.6 0.0 0.00 0.00 0.00 77 1005.6
20260506012528 27 88 1.6 0.0 0.00 0.00 0.00 76 1005.6
20260506012027 27 151 1.6 0.0 0.00 0.00 0.00 76 1005.6
20260506011528 27 134 1.6 0.0 0.00 0.00 0.00 76 1005.6
20260506011027 27 159 1.6 0.0 0.00 0.00 0.00 75 1005.7
20260506010526 27 154 1.6 0.0 0.00 0.00 0.00 75 1005.7
20260506010026 27 112 1.6 0.0 0.00 0.00 0.00 75 1005.7
20260506005526 27 218 1.6 0.0 0.00 0.00 0.00 74 1005.6
20260506005027 28 150 1.6 0.0 0.00 0.00 0.00 74 1005.6
20260506004529 28 217 1.6 0.0 0.00 0.00 0.00 74 1005.7
20260506004024 28 106 1.6 0.0 0.00 0.00 0.00 74 1005.6
20260506003525 28 227 3.2 0.0 0.00 0.00 0.00 74 1005.5
20260506003025 28 80 3.2 0.0 0.00 0.00 0.00 73 1005.5
20260506002524 28 132 1.6 0.0 0.00 0.00 0.00 73 1005.5
20260506002024 28 175 3.2 0.0 0.00 0.00 0.00 73 1005.5
20260506001524 28 178 3.2 0.0 0.00 0.00 0.00 72 1005.5
20260506001024 28 174 3.2 0.0 0.00 0.00 0.00 72 1005.4
20260506000524 28 206 3.2 0.0 0.00 0.00 0.00 72 1005.4
20260506000023 28 221 3.2 0.0 0.00 0.00 0.00 72 1005.3
20260505235522 28 193 3.2 0.0 0.00 0.00 0.00 72 1005.3
20260505235023 28 105 3.2 0.0 0.00 0.00 0.00 72 1005.2
20260505234548 28 131 3.2 0.0 0.00 0.00 0.00 72 1005.2
20260505234020 28 103 3.2 0.0 0.00 0.00 0.00 71 1005.1
20260505233520 28 9 3.2 0.0 0.00 0.00 0.00 71 1005.1
20260505233021 28 132 3.2 0.0 0.00 0.00 0.00 70 1005.1
20260505232520 28 134 3.2 0.0 0.00 0.00 0.00 70 1005.1
20260505232020 28 94 3.2 0.0 0.00 0.00 0.00 70 1005.1
20260505231520 28 257 3.2 0.0 0.00 0.00 0.00 71 1005.2
20260505231019 28 138 4.8 0.0 0.00 0.00 0.00 71 1005.2
20260505230519 29 142 4.8 0.0 0.00 0.00 0.00 71 1005.1
20260505230019 29 154 6.4 0.0 0.00 0.00 0.00 70 1005.0
20260505225519 29 197 4.8 0.0 0.00 0.00 0.00 69 1004.9
20260505225019 29 134 4.8 0.0 0.00 0.00 0.00 70 1005.0
20260505224527 29 149 4.8 0.0 0.00 0.00 0.00 69 1004.9
20260505224019 30 190 4.8 0.0 0.00 0.00 0.00 69 1004.9
20260505223518 30 165 4.8 0.0 0.00 0.00 0.00 69 1004.9
20260505223019 30 184 4.8 0.0 0.00 0.00 0.00 69 1004.9
20260505222518 30 232 4.8 0.0 0.00 0.00 0.00 69 1004.9
20260505222018 30 93 6.4 0.0 0.00 0.00 0.00 68 1004.9
20260505221517 30 142 4.8 0.0 0.00 0.00 0.00 68 1004.9
20260505221016 30 171 4.8 0.0 0.00 0.00 0.00 69 1005.1
20260505220515 30 194 4.8 0.0 0.00 0.00 0.00 67 1005.0
20260505220015 30 92 6.4 0.0 0.00 0.00 0.00 68 1005.1
20260505215516 30 207 6.4 0.0 0.00 0.00 0.00 67 1005.1
20260505215014 30 263 4.8 0.0 0.00 0.00 0.00 67 1005.4
20260505214519 30 153 4.8 0.0 0.00 0.00 0.00 65 1005.4
20260505214013 30 229 6.4 0.0 0.00 0.00 0.00 66 1005.5
20260505213516 30 148 8.0 0.0 0.00 0.00 0.00 69 1005.5
20260505213013 30 171 8.0 0.0 0.00 0.00 0.00 67 1005.6
20260505212514 30 182 6.4 0.0 0.00 0.00 0.00 67 1005.8
20260505212012 30 253 6.4 0.0 0.00 0.00 0.00 65 1005.6
20260505211512 30 74 8.0 0.0 0.00 0.00 0.00 67 1005.5
20260505211012 31 204 8.0 0.0 0.00 0.00 0.00 65 1005.6
20260505210514 30 195 6.4 0.0 0.00 0.00 0.00 66 1005.7
20260505210011 30 192 6.4 0.0 0.00 0.00 0.00 68 1005.7
20260505205509 30 81 8.0 0.0 0.00 0.00 0.00 67 1005.8
20260505205006 30 203 6.4 0.0 0.00 0.00 0.00 70 1005.8
20260505204505 29 176 4.8 0.0 0.00 0.00 0.00 70 1006.0
20260505204004 29 199 4.8 0.0 0.00 0.00 0.00 70 1006.0
20260505203503 28 211 4.8 0.0 0.00 0.00 0.00 72 1006.3
20260505203002 28 159 4.8 0.0 0.00 0.00 0.00 72 1006.4
20260505202501 28 221 4.8 0.0 0.00 0.00 0.00 71 1006.6
20260505202001 28 183 6.4 0.0 0.00 0.00 0.00 70 1006.6
20260505201609 28 136 6.4 0.0 0.00 0.00 0.00 72 1006.6
20260505201102 28 186 6.4 0.0 0.00 0.00 0.00 71 1006.7
20260505200600 28 215 6.4 0.0 0.00 0.00 0.00 72 1006.7
20260505200106 28 205 4.8 0.0 0.00 0.00 0.00 72 1006.7
20260505195600 28 188 4.8 0.0 0.00 0.00 0.00 73 1006.9
20260505195058 28 144 4.8 0.0 0.00 0.00 0.00 71 1006.9
20260505194607 28 199 4.8 0.0 0.00 0.00 0.00 72 1007.0
20260505194058 28 152 6.4 0.0 0.00 0.00 0.00 72 1007.0
20260505193557 28 128 6.4 0.0 0.00 0.00 0.00 72 1007.0
20260505193058 28 160 6.4 0.0 0.00 0.00 0.00 72 1007.1
20260505192559 28 246 4.8 0.0 0.00 0.00 0.00 72 1007.2
20260505192100 28 88 4.8 0.0 0.00 0.00 0.00 73 1007.2
20260505191557 28 179 6.4 0.0 0.00 0.00 0.00 72 1007.2
20260505191054 28 218 6.4 0.0 0.00 0.00 0.00 73 1007.1
20260505190554 28 190 6.4 0.0 0.00 0.00 0.00 74 1007.2
20260505190059 27 219 4.8 0.0 0.00 0.00 0.00 75 1007.2
20260505185552 27 161 6.4 0.0 0.00 0.00 0.00 74 1007.3
20260505185053 27 180 6.4 0.0 0.00 0.00 0.00 73 1007.3
20260505184552 27 200 4.8 0.0 0.00 0.00 0.00 75 1007.4
20260505184050 27 142 4.8 0.0 0.00 0.00 0.00 75 1007.5
20260505183548 27 210 6.4 0.0 0.00 0.00 0.00 76 1007.7
20260505183052 27 288 6.4 0.0 0.00 0.00 0.00 76 1007.7
20260505182548 27 252 4.8 0.0 0.00 0.00 0.00 75 1007.8
20260505182047 26 211 6.4 0.0 0.00 0.00 0.00 77 1007.9
20260505181548 26 177 6.4 0.0 0.00 0.00 0.00 77 1007.9
20260505181050 26 227 6.4 0.0 0.00 0.00 0.00 76 1008.0
20260505180549 26 159 4.8 0.0 0.00 0.00 0.00 78 1007.9
20260505180044 26 271 4.8 0.0 0.00 0.00 0.00 79 1008.1
20260505175543 26 206 4.8 0.0 0.00 0.00 0.00 79 1008.2
20260505175043 26 250 6.4 0.0 0.00 0.00 0.00 79 1008.3
20260505174546 25 211 6.4 0.0 0.00 0.00 0.00 79 1008.3
20260505174040 25 241 6.4 0.0 0.00 0.00 0.00 80 1008.3
20260505173543 25 180 6.4 0.0 0.00 0.00 0.00 80 1008.3
20260505173045 25 199 4.8 0.0 0.00 0.00 0.00 81 1008.4
20260505172539 25 159 4.8 0.0 0.00 0.00 0.00 82 1008.5
20260505172037 25 248 4.8 0.0 0.00 0.00 0.00 81 1008.5
20260505171537 25 245 6.4 0.0 0.00 0.00 0.00 82 1008.5
20260505171037 25 221 6.4 0.0 0.00 0.00 0.00 82 1008.5
20260505170536 24 153 6.4 0.0 0.00 0.00 0.00 82 1008.5
20260505170037 24 204 6.4 0.0 0.00 0.00 0.00 82 1008.6
20260505165535 24 194 6.4 0.0 0.00 0.00 0.00 82 1008.5
20260505165033 24 165 6.4 0.0 0.00 0.00 0.00 83 1008.5
20260505164533 24 167 4.8 0.0 0.00 0.00 0.00 83 1008.5
20260505164032 23 213 4.8 0.0 0.00 0.00 0.00 84 1008.5
20260505163532 23 237 4.8 0.0 0.00 0.00 0.00 84 1008.5
20260505163031 23 156 6.4 0.0 0.00 0.00 0.00 84 1008.5
20260505162530 23 137 6.4 0.0 0.00 0.00 0.00 85 1008.5
20260505162029 23 128 6.4 0.0 0.00 0.00 0.00 85 1008.5
20260505161529 23 215 6.4 0.0 0.00 0.00 0.00 85 1008.5
20260505161028 23 180 4.8 0.0 0.00 0.00 0.00 86 1008.6
20260505160527 23 155 6.4 0.0 0.00 0.00 0.00 86 1008.5
20260505153024 22 252 4.8 0.0 0.00 0.00 0.00 87 1008.7
20260505152523 22 201 4.8 0.0 0.00 0.00 0.00 87 1008.6
20260505152022 22 153 6.4 0.0 0.00 0.00 0.00 87 1008.6
20260505151522 22 173 4.8 0.0 0.00 0.00 0.00 87 1008.5
20260505151022 22 163 6.4 0.0 0.00 0.00 0.00 87 1008.4
20260505150522 22 232 6.4 0.0 0.00 0.00 0.00 87 1008.3
20260505140520 22 190 6.4 0.0 0.00 0.00 0.00 87 1008.1
20260505125015 21 202 4.8 0.0 0.00 0.00 0.00 88 1007.4
20260505124516 21 248 4.8 0.0 0.00 0.00 0.00 88 1007.3
20260505124016 21 196 6.4 0.0 0.00 0.00 0.00 88 1007.3
20260505123518 21 219 8.0 0.0 0.00 0.00 0.00 88 1007.3
20260505123014 21 219 8.0 0.0 0.00 0.00 0.00 88 1007.2
20260505122514 21 229 4.8 0.0 0.00 0.00 0.00 88 1007.2
20260505122018 21 110 3.2 0.0 0.00 0.00 0.00 88 1007.0
20260505121514 21 153 4.8 0.0 0.00 0.00 0.00 88 1007.0
20260505121014 21 221 8.0 0.0 0.00 0.00 0.00 88 1007.0
20260505120515 21 184 6.4 0.0 0.00 0.00 0.00 87 1007.0
20260505120013 21 215 6.4 0.0 0.00 0.00 0.00 87 1006.9
20260505115513 21 225 6.4 0.0 0.00 0.00 0.00 87 1006.9
20260505115013 21 173 6.4 0.0 0.00 0.00 0.00 87 1006.9
20260505114512 21 209 8.0 0.0 0.00 0.00 0.00 87 1006.9
20260505114013 21 124 6.4 0.0 0.00 0.00 0.00 87 1006.9
20260505113514 21 184 6.4 0.0 0.00 0.00 0.00 87 1006.8
20260505113011 21 72 6.4 0.0 0.00 0.00 0.00 87 1007.0
20260505112511 21 242 8.0 0.0 0.00 0.00 0.00 87 1006.8
20260505112011 21 182 6.4 0.0 0.00 0.00 0.00 87 1006.8
20260505111511 21 198 6.4 0.0 0.00 0.00 0.00 87 1006.8
20260505111014 21 205 6.4 0.0 0.00 0.00 0.00 87 1007.0
20260505110509 21 143 8.0 0.0 0.00 0.00 0.00 87 1007.1
20260505102008 21 202 6.4 0.0 0.00 0.00 0.00 86 1007.2
20260505101511 21 175 6.4 0.0 0.00 0.00 0.00 86 1007.2
20260505101005 21 164 6.4 0.0 0.00 0.00 0.00 86 1007.3
20260505100506 21 179 6.4 0.0 0.00 0.00 0.00 86 1007.2
20260505100006 21 224 6.4 0.0 0.00 0.00 0.00 86 1007.3
20260505095505 21 203 6.4 0.0 0.00 0.00 0.00 86 1007.0
20260505095006 21 210 8.0 0.0 0.00 0.00 0.00 85 1007.0
20260505094512 21 204 6.4 0.0 0.00 0.00 0.00 85 1007.1
20260505094003 21 267 6.4 0.0 0.00 0.00 0.00 85 1007.2
20260505093503 21 146 8.0 0.0 0.00 0.00 0.00 85 1007.3
20260505093003 21 128 6.4 0.0 0.00 0.00 0.00 85 1007.3
20260505092504 21 177 6.4 0.0 0.00 0.00 0.00 85 1007.5
20260505092003 21 169 6.4 0.0 0.00 0.00 0.00 85 1007.1
20260505091501 21 220 6.4 0.0 0.00 0.00 0.00 85 1007.1
20260505091001 21 224 6.4 0.0 0.00 0.00 0.00 85 1007.2
20260505090502 21 161 6.4 0.0 0.00 0.00 0.00 85 1007.3
20260505090001 21 195 6.4 0.0 0.00 0.00 0.00 85 1007.3
20260505085601 21 205 6.4 0.0 0.00 0.00 0.00 85 1007.4
20260505085101 21 113 8.0 0.0 0.00 0.00 0.00 85 1007.3
20260505084600 21 202 8.0 0.0 0.00 0.00 0.00 85 1007.3
20260505084100 21 195 8.0 0.0 0.00 0.00 0.00 85 1007.2
20260505083558 21 161 8.0 0.0 0.00 0.00 0.00 85 1007.4
20260505083058 21 182 8.0 0.0 0.00 0.00 0.00 85 1007.5
20260505082556 21 172 9.7 0.0 0.00 0.00 0.00 85 1007.6
20260505082056 21 153 8.0 0.0 0.00 0.00 0.00 85 1007.8
20260505081557 21 192 6.4 0.0 0.00 0.00 0.00 85 1007.8